Location: Tafessasset
(32.5899°N, 5.4824°W)
Time: 14:22:43
(UTC+00:00)

Cosmos 921 Rocket - Pass Details

Date: 18 February 2020
Orbit: 572 x 631 km, 75.8° (Epoch: 04 April)

Event Time Altitude Azimuth Distance (km) Brightness Sun altitude
Rises 05:57:05 0° 349° (N) 2,891 6.3 -14.4°
Reaches altitude 10° 05:59:23 10° 353° (N) 1,973 5.5 -14.0°
Maximum altitude 06:03:44 61° 74° (ENE) 685 3.6 -13.0°
Drops below altitude 10° 06:07:59 10° 155° (SSE) 1,924 6.0 -12.1°
Sets 06:10:11 0° 159° (SSE) 2,811 6.8 -11.7°
